Regional Weather Roundup
Issued by NWS Grand Forks, ND

Home | Current Version | Previous Version | Graphics & Text | Print | Product List | Glossary On
Versions: 1 2 3 4 5 6 7 8 9 10 11 12 13 14 15 16 17 18 19 20 21 22 23 24 25 26 27 28 29 30 31 32 33 34 35 36 37 38 39 40 41 42 43 44 45 46 47 48 49 50
000
ASUS43 KFGF 202310
RWRFGF
PRAIRIE TO PINES  WEATHER ROUNDUP
NATIONAL WEATHER SERVICE EASTERN NORTH DAKOTA/GRAND FORKS ND
500 PM CST FRI JAN 20 2017

 **SATELLITE DATA USED TO AUGMENT SKY COVER AT AUTOMATED STATIONS**
 *****  WEATHER ACROSS EASTERN NORTH DAKOTA  *****

CITY           SKY/WX    TMP DP  RH WIND       PRES   REMARKS
GRAND FORKS    CLOUDY    36  33  89 SE9       29.45S FOG
GRAND FRKS AFB FOG       34  32  93 E7        29.45R VSB 3/4
DEVILS LAKE    CLOUDY    33  33 100 SE6       29.39F FOG
FARGO          CLOUDY    39  35  86 SE13      29.43F
WAHPETON ARPT  CLOUDY    34  32  93 SE13G20   29.44S WCI  25
$$

 ***** WEATHER ACROSS CENTRAL AND WESTERN NORTH DAKOTA  *****

CITY           SKY/WX    TMP DP  RH WIND       PRES   REMARKS
BISMARCK       CLOUDY    32  30  92 CALM      29.35R FOG
MINOT          CLOUDY    27  25  92 S8        29.35R WCI  19
JAMESTOWN      FOG       33  33 100 SE15      29.36S VSB 1/4 WCI  23
MINOT AFB      CLOUDY    25  23  93 SW9       29.34S WCI  15
GARRISON         N/A     26  24  92 SW5       29.34R WCI  20
WILLISTON      FAIR      29  24  82 CALM      29.34S
DICKINSON      FAIR      32  27  81 NW12      29.29R WCI  23
HETTINGER      FAIR      32  27  81 NW8       29.32R WCI  25
$$

 *****  OTHER AIRPORT OBSERVATIONS IN OUR AREA  *****

CITY           SKY/WX    TMP DP  RH WIND       PRES   REMARKS
WALHALLA       NOT AVBL
GRAFTON AIRPOR FOG       34  34 100 SE10      29.48S VSB 1/2
VALLEY CITY AR LGT RAIN  32  32 100 SE10      29.41S VSB<1/4 WCI  24
CANDO          NOT AVBL
CAVALIER APRT  FOG       34  34 100 SE7       29.45F VSB<1/4
GWINNER        CLOUDY    36  36 100 SE16      29.40S VSB<1/4
SHEYENNE NWR     N/A     34  34  99 SE12      29.95S
ROLLA            N/A    N/A N/A N/A MISG        N/A
 ***** THE ABOVE OBSERVATIONS ARE NON NWS ARE NOT QUALITY
       CONTROLLED AND MAY MIS-REPORT RAIN FOR SNOW...
$$

  *****  WEATHER ACROSS NORTHERN MINNESOTA  *****

CITY           SKY/WX    TMP DP  RH WIND       PRES   REMARKS
FLAG ISLAND    DRIZZLE   36  36 100 CALM      29.52S
WARROAD        DRIZZLE   36  32  87 E6        29.51S
ROSEAU         DRIZZLE   37  32  81 E5        29.50S
HALLOCK        DRIZZLE   36  36 100 SE7       29.47F
THF RVR FALLS  CLOUDY    35  33  92 SE9       29.49S
BAUDETTE       LGT RAIN  36  35  96 SE8       29.52R FOG
WASKISH        CLOUDY    37  36  93 E6        29.53R FOG
CROOKSTON      CLOUDY    36  36 100 SE7       29.47F
GREENBUSH NDAW   N/A     34  34 100 SE6         N/A
$$
  *****  WEATHER ACROSS CENTRAL AND WEST MINNESOTA  *****

CITY           SKY/WX    TMP DP  RH WIND       PRES   REMARKS
FOSSTON        CLOUDY    34  34 100 E6        29.49S
BEMIDJI        CLOUDY    34  33  99 SE8       29.50S FOG
PARK RAPIDS    CLOUDY    35  32  88 SE10      29.49R FOG
ELBOW LAKE     CLOUDY    34  34 100 SE10      29.46F FOG
WADENA         CLOUDY    34  34 100 SE6       29.49R FOG
DETROIT LAKES  CLOUDY    34  34 100 SE10      29.47S FOG
MOORHEAD       CLOUDY    36  34  93 SE10      29.45S
FERGUS FALLS   CLOUDY    36  36 100 SE10      29.50S
MORRIS MN      CLOUDY    36  34  93 SE13      29.46S FOG
STAPLES        FOG       34  34 100 E5        29.51R VSB 3/4
$$
  *****  WEATHER ELSEWHERE ACROSS MINNESOTA  *****

CITY           SKY/WX    TMP DP  RH WIND       PRES   REMARKS
DULUTH         SNOW      34  33  96 E10       29.57S VSB 1/2
INTRNTL FALLS  LGT RAIN  37  35  92 E7        29.56R
ELY            LGT RAIN  36  34  93 SE7       29.58F
CLOQUET        SNOW      34  34 100 E7        29.57R VSB 1/4
WHEATON        CLOUDY    43  43 100 SE18      29.45S FOG
BRAINERD       CLOUDY    34  34 100 SE7       29.54R FOG
HIBBING        CLOUDY    33  33 100 SE7       29.55F
ALEXANDRIA     CLOUDY    33  33 100 SE12      29.49S FOG     WCI  24
SAINT CLOUD    FOG       35  35 100 SE8       29.54R VSB 1/4
MINNEAPOLIS    FOG       36  34  92 SE7       29.57R VSB 1
$$

  *****  WEATHER ACROSS SOUTH DAKOTA  *****

CITY           SKY/WX    TMP DP  RH WIND       PRES   REMARKS
SIOUX FALLS    FOG       40  40 100 SE10      29.43S VSB 3/4
BROOKINGS      FOG       37  36  93 S10       29.41S VSB 1
WATERTOWN      FOG       35  35 100 SE14      29.38S VSB 1/4
HURON          FAIR      43  34  70 S5        29.35R
SISSETON         N/A     35  35 100 S13       29.41F
ABERDEEN       CLOUDY    34  30  85 SE6       29.36S
MITCHELL       MOCLDY    46  39  76 S18       29.36R
PIERRE         FAIR      19  15  84 NW7       29.32S WCI  10
MOBRIDGE       CLOUDY    30  26  85 NW5       29.29S FOG
RAPID CITY     FAIR      38  30  73 NW20      29.30F
$$

  *****  SOME WEATHER IN NEARBY STATES *****

CITY           SKY/WX    TMP DP  RH WIND       PRES   REMARKS
GLASGOW MT     MOCLDY    36  29  75 CALM      29.36R
GREAT FALLS MT FAIR      41  22  46 S6        29.34S
CHEYENNE WY    FAIR      36  19  50 NW15G28   29.38R
SCOTTSBLUFF NE LGT RAIN  38  32  79 W9        29.39R
OMAHA NE       LGT RAIN  42  39  89 SE3       29.46R FOG
DES MOINES IA  FOG       41  40  96 SE6       29.52R VSB 1/2
DAVENPORT IA   CLOUDY    43  42  97 E6        29.57F FOG
CHICAGO IL     CLOUDY    41  40  96 SE6       29.65R FOG
EAU CLAIRE WI  CLOUDY    36  34  92 SE8       29.60S
LA CROSSE WI   CLOUDY    40  36  86 SE6       29.61R FOG
$$

  *****  SOME NATIONAL WEATHER *****

CITY           SKY/WX    TMP DP  RH WIND       PRES   REMARKS
LA GUARDIA NY  LGT RAIN  43  36  76 VRB6      29.94R
RALEIGH NC     MOCLDY    58  54  86 CALM      29.87R
ATLANTA GA     FAIR      69  57  65 S7        29.83S
NEW ORLEANS LA MOCLDY    74  69  85 S8        29.77F
OKLAHOMA CITY  FAIR      67  32  27 SW23G33   29.48S
ALBUQUERQUE NM CLOUDY    42  28  57 E6        29.64F
SALT LAKE CITY CLOUDY    42  26  53 S14       29.38F
LOS ANGELES CA PTSUNNY   58  53  84 W23       29.44F
BOISE ID       PTSUNNY   41  26  55 SE18G28   29.25F
SEATTLE WA     CLOUDY    51  31  46 E14       29.09S
$$

*** WEATHER ACROSS MANITOBA...SASKATCHEWAN AND ONTARIO ***
                ***ONTARIO***

CITY           SKY/WX    TMP DP  RH WIND       PRES   REMARKS
GERALDTON      FOG       34  34 100 SW3       29.65S VSB 1/8
THUNDER BAY    FOG       34  34 100 E5        29.66F VSB 1/4
SIOUX LOOKOUT  FOG       36  36 100 S3        29.59R VSB 1/8
TORONTO        CLOUDY    37  36  93 E6        29.73R
BIG TROUT LK   FLURRIES  25  25 100 SE5       29.66R WCI  19
PICKLE LAKE    FOG       34  34 100 SW2       29.61R VSB 1/4
DRYDEN         CLOUDY    37  36  93 E6        29.57R
KENORA         DRZL/FOG  37  37 100 SE7       29.53R VSB 1
$$
                *** MANITOBA***

CITY           SKY/WX    TMP DP  RH WIND       PRES   REMARKS
BRANDON        CLOUDY    25  23  93 N3        29.40S
DAUPHIN        CLEAR     25  19  80 CALM      29.38S
ISLAND LAKE    FRZ DRZL  30  28  93 VRB2      29.57S FOG
PILOT MOUND      N/A     34  32  93 SE10        N/A
THE PAS        CLOUDY    30  21  69 E9        29.40R WCI  22
THOMPSON       LGT SNOW  28  27  93 E6        29.54R FOG     WCI  22
WINNIPEG       DRZL/FOG  36  36 100 SE10      29.48S VSB 1/2
LYNN LAKE      CLOUDY    28  28 100 SE9       29.47R FOG     WCI  20
CHURCHILL      FLURRIES  18  16  93 E20       29.78S WCI   1
GILLAM         LGT SNOW  27  27 100 E5        29.64R WCI  21
$$
                ***SASKATCHEWAN***

CITY           SKY/WX    TMP DP  RH WIND       PRES   REMARKS
ESTEVAN        FOG       23  23 100 VRB3      29.33R VSB 1/4
KINDERSLEY     MOCLDY    34  30  86 N5        29.32R
LLOYDMINSTER   MOCLDY    32  28  86 N3        29.35R
PRINCE ALBERT  MOCLDY    32  28  86 NW5       29.32R
REGINA         MOCLDY    27  23  86 SE5       29.31S WCI  21
YORKTON        MOCLDY    27  25  93 SE5       29.33R FOG     WCI  21
N. BATTLEFORD  CLOUDY    28  28 100 NW6       29.35R WCI  22
LA RONGE       CLOUDY    28  27  93 N6        29.37R WCI  22
SASKATOON      CLOUDY    32  30  93 NW8       29.33R WCI  25
SWIFT CURRENT  CLOUDY    41  27  56 W9        29.30R
$$
NOTE: THESE ARE AUTOMATED STATIONS WITH LIMITED QUALITY CONTROL
      "FAIR" INDICATES FEW OR NO CLOUDS BELOW 12,000 FEET WITH NO
      SIGNIFICANT WEATHER AND/OR OBSTRUCTIONS TO VISIBILITY.
      SKY/WX - SKY CONDITION AND SIGNIFICANT WEATHER.
      TMP - AIR TEMPERATURE.    DP   - DEWPOINT TEMPERATURE.
      RH  - RELATIVE HUMIDITY.  PRES - PRESSURE.
      HX  - HEAT INDEX.         WCI  - WIND CHILL INDEX.
$




USA.gov is the U.S. government's official web portal to all federal, state and local government web resources and services.